Weather History for Austin, TX

Change the Weather History Date:

Thursday, December 6, 2012

  Actual Average Record
Temperature  
Mean Temperature 62 °F 54 °F  
Max Temperature 74 °F 64 °F 84 °F (1966)
Min Temperature 49 °F 44 °F 17 °F (1950)
Degree Days  
Heating Degree Days 3 11  
Month to date heating degree days 6 65  
Since 1 July heating degree days 183 277  
Cooling Degree Days 0 1  
Month to date cooling degree days 30 6  
Year to date cooling degree days 3593 3132  
Growing Degree Days 12 (Base 50)    
Moisture  
Dew Point 50 °F    
Average Humidity 68    
Maximum Humidity 100    
Minimum Humidity 35    
Precipitation  
Precipitation 0.00 in 0.09 in 0.91 in (1928)
Month to date precipitation T 0.46  
Year to date precipitation 32.67 32.38  
Snow  
Snow 0.00 in - - ()
Month to date snowfall 0.0  
Since 1 July snowfall 0.0  
Snow Depth 0.00 in    
Sea Level Pressure  
Sea Level Pressure 29.97 in    
Wind  
Wind Speed 3 mph (South)    
Max Wind Speed 12 mph    
Max Gust Speed 19 mph    
Visibility 6 miles    
Events Fog    
T = Trace of Precipitation, MM = Missing Value Source: NWS Daily Summary

Daily Weather History Graph

Daily Weather History Graph

Search for Another Location

Airport:

Trip Planner

Search our weather history database for the weather conditions in past years. The results will help you decide how hot, cold, wet, or windy it might be!

Date:

Astronomy

Dec. 06, 2012 Rise Set
Actual Time 7:14 AM CST 5:30 PM CST
Civil Twilight 6:47 AM CST 5:56 PM CST
Nautical Twilight 6:18 AM CST 6:26 PM CST
Astronomical Twilight 5:49 AM CST 6:55 PM CST
Moon No Moon Rise 12:31 PM CST (12/6)
Length of Visible Light 11h 08m
Length of Day
10h 16m
Waning Gibbous, 49% of the Moon is Illuminated
Dec 6
Waning Gibbous
Dec 13
New
Dec 19
First Quarter
Dec 28
Full
Jan 4
Last Quarter

Hourly Weather History & Observations

Time (CST) Temp. Dew Point Humidity Pressure Visibility Wind Dir Wind Speed Gust Speed Precip Events Conditions
12:27 AM 50.0 °F 44.1 °F 80% 30.06 in 10.0 mi Calm Calm - N/A   Partly Cloudy
12:51 AM 50.0 °F 44.1 °F 80% 30.04 in 10.0 mi Calm Calm - N/A   Clear
1:51 AM 50.0 °F 45.0 °F 83% 30.03 in 10.0 mi Calm Calm - N/A   Clear
2:33 AM 50.0 °F 45.0 °F 83% 30.03 in 10.0 mi Calm Calm - N/A   Partly Cloudy
2:51 AM 50.0 °F 46.0 °F 86% 30.01 in 10.0 mi Calm Calm - N/A   Partly Cloudy
3:20 AM 50.0 °F 46.0 °F 86% 30.02 in 10.0 mi Calm Calm - N/A   Mostly Cloudy
3:51 AM 50.0 °F 46.9 °F 89% 30.00 in 8.0 mi Calm Calm - N/A   Overcast
4:43 AM 53.1 °F 50.0 °F 89% 30.00 in 7.0 mi Calm Calm - N/A   Overcast
4:51 AM 54.0 °F 50.0 °F 86% 29.99 in 6.0 mi Calm Calm - N/A   Overcast
5:28 AM 54.0 °F 52.0 °F 93% 30.00 in 1.8 mi Variable 4.6 mph - N/A   Overcast
5:51 AM 54.0 °F 52.0 °F 93% 30.00 in 1.5 mi Calm Calm - N/A   Overcast
6:02 AM 54.0 °F 52.0 °F 93% 30.00 in 2.0 mi South 3.5 mph - N/A   Overcast
6:18 AM 54.0 °F 52.0 °F 93% 30.01 in 1.5 mi South 3.5 mph - N/A   Overcast
6:48 AM 53.6 °F 53.6 °F 100% 30.02 in 0.8 mi Calm Calm - N/A   Mist
6:51 AM 54.0 °F 53.1 °F 97% 30.01 in 0.8 mi Calm Calm - N/A   Mist
7:43 AM 55.0 °F 54.0 °F 96% 30.01 in 0.2 mi Calm Calm - N/A Fog Fog
7:51 AM 54.0 °F 53.1 °F 97% 30.01 in 0.2 mi South 4.6 mph - N/A Fog Fog
8:09 AM 54.0 °F 53.1 °F 97% 30.02 in 0.5 mi South 3.5 mph - N/A Fog Fog
8:41 AM 55.0 °F 54.0 °F 96% 30.02 in 1.0 mi South 6.9 mph - N/A   Overcast
8:51 AM 55.0 °F 54.0 °F 96% 30.01 in 1.0 mi Variable 5.8 mph - N/A   Overcast
9:10 AM 55.0 °F 54.0 °F 96% 30.02 in 2.0 mi Variable 4.6 mph - N/A   Overcast
9:38 AM 55.0 °F 54.0 °F 96% 30.02 in 3.0 mi South 5.8 mph - N/A   Overcast
9:51 AM 55.9 °F 54.0 °F 93% 30.02 in 4.0 mi Variable 5.8 mph - N/A   Overcast
10:10 AM 55.9 °F 54.0 °F 93% 30.02 in 5.0 mi South 6.9 mph - N/A   Overcast
10:51 AM 59.0 °F 54.0 °F 83% 30.00 in 6.0 mi Variable 5.8 mph - N/A   Haze
11:46 AM 62.6 °F 53.6 °F 72% 29.97 in 8.0 mi Variable 5.8 mph - N/A   Overcast
11:51 AM 63.0 °F 54.0 °F 72% 29.97 in 9.0 mi SSE 8.1 mph - N/A   Mostly Cloudy
12:14 PM 64.9 °F 54.0 °F 68% 29.95 in 10.0 mi Variable 6.9 mph - N/A   Partly Cloudy
12:51 PM 66.9 °F 54.0 °F 63% 29.92 in 10.0 mi Variable 4.6 mph - N/A   Clear
1:51 PM 71.1 °F 51.1 °F 49% 29.88 in 10.0 mi Variable 6.9 mph - N/A   Clear
2:51 PM 73.0 °F 48.0 °F 41% 29.86 in 10.0 mi SSE 10.4 mph 19.6 mph N/A   Clear
3:51 PM 73.0 °F 45.0 °F 37% 29.85 in 10.0 mi Variable 4.6 mph - N/A   Clear
4:51 PM 72.0 °F 45.0 °F 38% 29.83 in 10.0 mi South 3.5 mph - N/A   Clear
5:51 PM 66.9 °F 46.0 °F 47% 29.84 in 10.0 mi South 4.6 mph - N/A   Clear
6:51 PM 64.9 °F 46.9 °F 52% 29.86 in 10.0 mi Calm Calm - N/A   Clear
7:51 PM 63.0 °F 46.9 °F 56% 29.87 in 10.0 mi Calm Calm - N/A   Clear
8:51 PM 61.0 °F 46.9 °F 60% 29.88 in 10.0 mi SSW 3.5 mph - N/A   Clear
9:51 PM 61.0 °F 46.9 °F 60% 29.88 in 10.0 mi South 3.5 mph - N/A   Clear
10:51 PM 59.0 °F 50.0 °F 72% 29.89 in 10.0 mi Variable 3.5 mph - N/A   Clear
11:51 PM 57.9 °F 52.0 °F 81% 29.88 in 10.0 mi Calm Calm - N/A   Clear